Flag for Brazil Weather past 2 weeks in Manaus, Amazonas, Brazil

Now
79 °F

Partly sunny.


Feels Like: 82 °F
Forecast: 77 / 89 °F
Wind: 2 mph from South

Location: Manaus Aeroporto

Current Time: Mar 28, 2015 at 7:56:17 AM

Latest Report: Mar 28, 2015 at 7:00 AM


Visibility: N/A

Pressure: 29.95 "Hg

Humidity: 84%

Dew point: 73 °F

Location of ManausLocation

Historic Weather in Manaus — Graph

°F

Manaus temperature yesterday

Maximum temperature yesterday: 91 °F (at 4:00 PM)
Minimum temperature yesterday: 75 °F (at 3:00 AM)
Average temperature yesterday: 82 °F

Past Weeks' High & Low Weather Summary

 TemperatureHumidityPressure
High91 °F (Mar 27, 4:00 PM)100% (Mar 16, 5:00 PM)30.04 "Hg (Mar 16, 5:00 PM)
Low43 °F (Mar 16, 5:00 PM)52% (Mar 27, 4:00 PM)29.53 "Hg (Mar 13, 10:00 PM)
Average79 °F84%29.87 "Hg
* Reported Mar 13 6:00 AM — Mar 28 6:00 AM, Manaus, Weather by CustomWeather, © 2015

Note: Actual official high and low records may vary slightly from our data, if they occured in-between our weather recording intervals... More about our weather records

Advertising

Manaus weather history for previous 24 hours

 ConditionsComfort  
Time TempWeatherWind HumidityBarometerVisibility
6:00 AM
Sat, Mar 28
79 °FPartly cloudy.2 mph89%29.92 "HgN/A
5:00 AM79 °FPassing clouds.2 mph89%29.89 "HgN/A
4:00 AM79 °FPassing clouds.5 mph89%29.89 "HgN/A
3:00 AM79 °FPassing clouds.6 mph89%29.89 "HgN/A
2:00 AM81 °FPassing clouds.6 mph79%29.89 "HgN/A
1:00 AM81 °FPassing clouds.6 mph79%29.92 "HgN/A
12:00 AM81 °FClear.5 mph79%29.92 "Hg10 mi
11:00 PM
Fri, Mar 27
82 °FClear.6 mph74%29.92 "Hg10 mi
10:00 PM82 °FClear.3 mph74%29.92 "Hg10 mi
9:00 PM82 °FClear.5 mph74%29.86 "Hg10 mi
8:00 PM84 °FClear.10 mph70%29.86 "Hg10 mi
7:00 PM86 °FClear.5 mph66%29.83 "Hg10 mi
6:00 PM86 °FScattered clouds.2 mph70%29.80 "HgN/A
5:00 PM90 °FPassing clouds.5 mph55%29.80 "HgN/A
4:00 PM91 °FPassing clouds.5 mph52%29.77 "HgN/A
3:00 PM90 °FScattered clouds.5 mph55%29.80 "HgN/A
2:00 PM90 °FScattered clouds.6 mph59%29.86 "HgN/A
1:00 PM88 °FScattered clouds.6 mph62%29.89 "HgN/A
12:00 PM86 °FPassing clouds.7 mph62%29.92 "HgN/A
11:00 AM86 °FPassing clouds.6 mph62%29.95 "HgN/A
10:00 AM82 °FPassing clouds.6 mph70%29.98 "HgN/A
9:00 AM82 °FSunny.5 mph74%29.95 "Hg10 mi
8:00 AM79 °FSunny.3 mph79%29.95 "Hg10 mi
7:00 AM77 °FSunny.2 mph83%29.92 "Hg10 mi
Weather by CustomWeather, © 2015

See weather overviewHow to use our weather pages